Zurück zum Katalog

STARLINK-32355

AktivKommunikationVLEO
NORAD 61634·PAYLOAD·🇺🇸 United States

Gestartet Oct 23, 2024 von Cape Canaveral Space Force Station

Loading…

Nächste Überflüge (nächste 24 Stunden)

TLE

AktuellSource: CelesTrak SupGP

Epoche: Sep 14, 2026, 21:14 UTC

1 61634C 24191P   26257.88520833 -.00027328  00000+0 -98922-3 0  2579
2 61634  43.0001 169.8215 0000925 276.3556 226.0483 15.27612079    18

Verfolge STARLINK-32355 in Echtzeit mit AllMySat

Download on the App Store